STARLINK-11632, 63108

Orbit data source: Space-Track

STARLINK-11632, 63108 is a payload satellite owned by SpaceX/Seattle (US) in LEO that was launched on Thu, 27 Feb 2025 UTC via an FALCON 9 launch vehicle from the Air Force Eastern Test Range (AFETR). Payload-class satellites include a variety of spacecraft equipped with specific instruments for various scientific and technological missions. These include communications satellites like Starlink; space stations such as the ISS; scientific satellites like the Hubble; Earth observation satellites from companies like Planet Labs, Umbra, and HawkEye 360; GPS; miniature CubeSats for education and research; and military/defense satellites.

Loading next visibility...
Identifier
63108, 2025-039E
Orbit
LEO
Last TLE update
19 hours ago
Origin
Manufacturer
SpaceX/Seattle
Mission
Operational Commercial Communications
Bus & Motor
STARLINK V2M, Unknown motor
Mass
730 kg wet, ~700 kg dry
Launch date (UTC)
2025-02-27 (2 months ago)
Launch vehicle
FALCON 9
Launch site
Air Force Eastern Test Range (AFETR)
Object type
Payload
Rocket body
Debris
Shape & HBR
Box + 2 Pan, 29 m
Radar Cross Section
36.964 m², Large (>1 m²)

Expand to show TLE details & history

TLE from 19 hours ago
0 STARLINK-11632
1 63108U 25039E   25128.47050739  .00000853  00000-0  77663-5 0  9990
2 63108  42.9987 278.2895 0002027 265.5665  94.4973 15.77862151 11591
Epoch: 2025-05-08T11:17Z
Definitive object data (Epoch: 2025-05-08T11:17:31.838Z)
Latitude
-0.00006°
Longitude
-117.63376°
Altitude
336.376 km
Speed
7.709 km/s
True Right ascension
18h 33m 09s
True Declination
0° 00' 00"
Sunlit
Object was in full shadow at TLE epoch
Visualization TLE readout
Latitude
-41.47247°
Longitude
166.94846°
Altitude
347.786 km
Speed
7.701 km/s
Apparent Right ascension
08h 30m 58s
Apparent Declination
-78° 22' 26"
Sunlit
Object is in full shadow
Visualization observer readout
Local Sidereal Time
14:52:15
Azimuth
195.186° SSW
Elevation
-40.004°
Doppler factor
1
Orbital elements
Apogee altitude
339.848 km
Perigee altitude
337.125 km
Semi-major axis
6,716.624 km
Eccentricity
0.0002027
Inclination
42.9987°
RAAN
278.2895°
Arg. of periapsis
265.5665°
True anomaly
94.52046°
Mean anomaly
94.4973°
Eccentric anomaly
94.50888°
Mean motion
3.94291 °/min
BSTAR
0.0000077663
Orbital period
91.3 mins
Loading maneuver chart data...
Loading SW <> Apogee altitude chart data...
Loading historical data...
Loading historical data...
Loading historical data...
Loading historical data...
Loading historical data...
Loading historical data...
Loading historical data...

STARLINK-11632 Visibility forecast

Observer location: undefined°, undefined°

Span
Click to sort rows by Start time (UTC) header in descending order
Start Az.
Max El. time (UTC)
Max El. Az.
Max El.
End time (UTC)
End Az.
4 mins2025-05-09 13:20:22.379Z221.898° SW2025-05-09 13:22:22.379Z170.431° S31.625°2025-05-09 13:24:22.379Z91.083° ESE
4 mins2025-05-09 18:08:22.379Z272.677° WNW2025-05-09 18:09:22.379Z244.601° WSW34.84°2025-05-09 18:12:22.379Z127.329° SE
|